GLD1440 SIXD-SSST

Flight info

Callsign GLD1440
Flight time 0h 38m
Altitude 9500
Route 3021S05521W 3008S05515W 2947S05505W
Aircraft BE58/L-SDFGIRY/S

Departure

Time 2026-04-25 14:29
Airport Fazenda da Paz Airport (SIXD)

Arrival

Time 2026-04-25 15:08
Airport Santiago Airport (SSST)
Time Latitude Longitude Altitude Speed Heading
2026-04-25 14:18 -30.84458 -55.57082 904 ft 0 kts 344°
2026-04-25 14:26 -30.84445 -55.57083 904 ft 6 kts 355°
2026-04-25 14:26 -30.84416 -55.57081 904 ft 0 kts 15°
2026-04-25 14:27 -30.84415 -55.57081 904 ft 2 kts 15°
2026-04-25 14:27 -30.84376 -55.57092 904 ft 11 kts 291°
2026-04-25 14:27 -30.84354 -55.57219 905 ft 18 kts 288°
2026-04-25 14:27 -30.84361 -55.57241 906 ft 9 kts 131°
2026-04-25 14:28 -30.84367 -55.57221 905 ft 0 kts 100°
2026-04-25 14:29 -30.84417 -55.56914 906 ft 85 kts 100°
2026-04-25 14:29 -30.84566 -55.56031 1051 ft 126 kts 100°
2026-04-25 14:29 -30.84608 -55.54990 1456 ft 131 kts 78°
2026-04-25 14:29 -30.84074 -55.54095 1689 ft 154 kts 34°
2026-04-25 14:30 -30.83020 -55.54060 1693 ft 168 kts 324°
2026-04-25 14:30 -30.80852 -55.55087 2092 ft 179 kts
2026-04-25 14:30 -30.79665 -55.54676 2293 ft 176 kts 22°
2026-04-25 14:31 -30.78520 -55.54132 2493 ft 179 kts 23°
2026-04-25 14:31 -30.77367 -55.53599 2782 ft 175 kts 22°
2026-04-25 14:31 -30.76247 -55.53091 3147 ft 171 kts 22°
2026-04-25 14:31 -30.75154 -55.52595 3501 ft 165 kts 22°
2026-04-25 14:32 -30.74094 -55.52116 3860 ft 161 kts 22°
2026-04-25 14:32 -30.73060 -55.51648 4218 ft 159 kts 22°
2026-04-25 14:32 -30.72051 -55.51190 4582 ft 157 kts 22°
2026-04-25 14:32 -30.71038 -55.50734 4950 ft 155 kts 21°
2026-04-25 14:33 -30.70042 -55.50284 5302 ft 151 kts 21°
2026-04-25 14:33 -30.69073 -55.49845 5664 ft 147 kts 21°
2026-04-25 14:33 -30.68132 -55.49419 6027 ft 143 kts 20°
2026-04-25 14:33 -30.67208 -55.49002 6346 ft 144 kts 20°
2026-04-25 14:34 -30.66252 -55.48570 6544 ft 150 kts 19°
2026-04-25 14:34 -30.65271 -55.48126 6736 ft 152 kts 19°
2026-04-25 14:34 -30.64277 -55.47678 6932 ft 154 kts 19°
2026-04-25 14:34 -30.63279 -55.47227 7122 ft 154 kts 18°
2026-04-25 14:35 -30.62285 -55.46778 7314 ft 153 kts 18°
2026-04-25 14:35 -30.61295 -55.46330 7503 ft 152 kts 18°
2026-04-25 14:35 -30.60329 -55.45896 7689 ft 150 kts 16°
2026-04-25 14:35 -30.59338 -55.45469 7883 ft 153 kts 18°
2026-04-25 14:36 -30.58343 -55.45000 8080 ft 155 kts 18°
2026-04-25 14:36 -30.57338 -55.44543 8281 ft 155 kts 17°
2026-04-25 14:36 -30.56328 -55.44089 8480 ft 155 kts 16°
2026-04-25 14:36 -30.55320 -55.43635 8658 ft 156 kts 16°
2026-04-25 14:37 -30.54297 -55.43176 8813 ft 158 kts 16°
2026-04-25 14:37 -30.53266 -55.42711 8968 ft 159 kts 16°
2026-04-25 14:37 -30.52232 -55.42245 9118 ft 159 kts 15°
2026-04-25 14:37 -30.51201 -55.41780 9272 ft 158 kts 15°
2026-04-25 14:38 -30.50180 -55.41321 9417 ft 157 kts 15°
2026-04-25 14:38 -30.49149 -55.40859 9424 ft 164 kts 15°
2026-04-25 14:38 -30.48069 -55.40371 9431 ft 168 kts 15°
2026-04-25 14:38 -30.46971 -55.39874 9436 ft 171 kts 15°
2026-04-25 14:39 -30.45855 -55.39373 9439 ft 173 kts 17°
2026-04-25 14:39 -30.44732 -55.38868 9436 ft 173 kts 14°
2026-04-25 14:39 -30.43610 -55.38366 9440 ft 172 kts 15°
2026-04-25 14:39 -30.42483 -55.37867 9441 ft 175 kts 15°
2026-04-25 14:40 -30.41331 -55.37340 9439 ft 180 kts 17°
2026-04-25 14:40 -30.40561 -55.36975 9443 ft 180 kts 15°
2026-04-25 14:40 -30.38997 -55.36299 9438 ft 183 kts 15°
2026-04-25 14:40 -30.37796 -55.35755 9443 ft 188 kts 16°
2026-04-25 14:41 -30.36571 -55.35198 9439 ft 190 kts 15°
2026-04-25 14:41 -30.35332 -55.34641 9436 ft 191 kts 15°
2026-04-25 14:41 -30.34492 -55.34266 9434 ft 191 kts 15°
2026-04-25 14:41 -30.33256 -55.33710 9438 ft 191 kts 15°
2026-04-25 14:42 -30.32033 -55.33161 9432 ft 191 kts 15°
2026-04-25 14:42 -30.31196 -55.32785 9435 ft 191 kts 15°
2026-04-25 14:42 -30.29550 -55.32048 9435 ft 191 kts 15°
2026-04-25 14:42 -30.28307 -55.31487 9434 ft 192 kts 15°
2026-04-25 14:43 -30.27066 -55.30930 9437 ft 191 kts 15°
2026-04-25 14:43 -30.25824 -55.30375 9434 ft 191 kts 15°
2026-04-25 14:43 -30.24589 -55.29821 9435 ft 191 kts 15°
2026-04-25 14:43 -30.23355 -55.29267 9434 ft 189 kts 15°
2026-04-25 14:44 -30.22124 -55.28715 9432 ft 190 kts 15°
2026-04-25 14:44 -30.20886 -55.28163 9431 ft 190 kts 15°
2026-04-25 14:44 -30.19649 -55.27606 9431 ft 190 kts 15°
2026-04-25 14:44 -30.18417 -55.27056 9430 ft 190 kts 15°
2026-04-25 14:45 -30.17188 -55.26505 9425 ft 189 kts 15°
2026-04-25 14:45 -30.15962 -55.25956 9428 ft 189 kts 15°
2026-04-25 14:45 -30.14736 -55.25408 9426 ft 189 kts 15°
2026-04-25 14:45 -30.13526 -55.24868 9420 ft 189 kts 15°
2026-04-25 14:46 -30.12301 -55.24321 9429 ft 189 kts 15°
2026-04-25 14:46 -30.11080 -55.23776 9427 ft 189 kts 15°
2026-04-25 14:46 -30.09854 -55.23231 9423 ft 188 kts 15°
2026-04-25 14:46 -30.08629 -55.22687 9427 ft 189 kts 15°
2026-04-25 14:47 -30.07400 -55.22141 9428 ft 189 kts 15°
2026-04-25 14:47 -30.06585 -55.21779 9426 ft 190 kts 15°
2026-04-25 14:47 -30.04934 -55.21045 9429 ft 190 kts 15°
2026-04-25 14:47 -30.03705 -55.20502 9429 ft 189 kts 15°
2026-04-25 14:48 -30.02493 -55.19962 9430 ft 189 kts 15°
2026-04-25 14:48 -30.01265 -55.19416 9428 ft 189 kts 15°
2026-04-25 14:48 -30.00037 -55.18872 9426 ft 189 kts 15°
2026-04-25 14:48 -29.98807 -55.18325 9424 ft 189 kts 15°
2026-04-25 14:49 -29.97578 -55.17780 9423 ft 188 kts 15°
2026-04-25 14:49 -29.96354 -55.17237 9421 ft 188 kts 15°
2026-04-25 14:49 -29.95130 -55.16695 9419 ft 189 kts 15°
2026-04-25 14:49 -29.93902 -55.16151 9423 ft 189 kts 15°
2026-04-25 14:50 -29.92677 -55.15608 9421 ft 189 kts 15°
2026-04-25 14:50 -29.91447 -55.15062 9418 ft 189 kts 15°
2026-04-25 14:50 -29.90220 -55.14519 9413 ft 189 kts 15°
2026-04-25 14:50 -29.88993 -55.13976 9420 ft 189 kts 15°
2026-04-25 14:51 -29.87784 -55.13441 9419 ft 189 kts 15°
2026-04-25 14:51 -29.86557 -55.12898 9418 ft 188 kts 15°
2026-04-25 14:51 -29.85331 -55.12356 9419 ft 188 kts 15°
2026-04-25 14:51 -29.84106 -55.11814 9416 ft 189 kts 15°
2026-04-25 14:52 -29.82879 -55.11271 9415 ft 189 kts 15°
2026-04-25 14:52 -29.81652 -55.10729 9414 ft 189 kts 15°
2026-04-25 14:52 -29.80422 -55.10186 9413 ft 189 kts 15°
2026-04-25 14:52 -29.79609 -55.09826 9417 ft 189 kts 15°
2026-04-25 14:53 -29.77969 -55.09102 9415 ft 189 kts 15°
2026-04-25 14:53 -29.76741 -55.08558 9411 ft 189 kts 15°
2026-04-25 14:53 -29.75516 -55.08015 9406 ft 189 kts 15°
2026-04-25 14:53 -29.74305 -55.07479 9414 ft 189 kts 15°
2026-04-25 14:54 -29.73075 -55.06935 9416 ft 189 kts 15°
2026-04-25 14:54 -29.71846 -55.06389 9408 ft 189 kts 15°
2026-04-25 14:54 -29.70619 -55.05847 9414 ft 189 kts 15°
2026-04-25 14:54 -29.69393 -55.05305 9414 ft 189 kts 15°
2026-04-25 14:55 -29.68163 -55.04761 9419 ft 188 kts 15°
2026-04-25 14:55 -29.66939 -55.04220 9425 ft 188 kts 15°
2026-04-25 14:55 -29.65716 -55.03679 9434 ft 188 kts 15°
2026-04-25 14:55 -29.64494 -55.03139 9433 ft 188 kts 15°
2026-04-25 14:56 -29.63260 -55.02596 9325 ft 194 kts 15°
2026-04-25 14:56 -29.61988 -55.02036 9132 ft 201 kts 16°
2026-04-25 14:56 -29.60692 -55.01459 8940 ft 199 kts 16°
2026-04-25 14:56 -29.59578 -55.00967 8767 ft 197 kts 16°
2026-04-25 14:57 -29.58296 -55.00400 8567 ft 197 kts 17°
2026-04-25 14:57 -29.57018 -54.99837 8367 ft 195 kts 17°
2026-04-25 14:57 -29.55753 -54.99280 8171 ft 195 kts 17°
2026-04-25 14:57 -29.54488 -54.98722 7975 ft 195 kts 17°
2026-04-25 14:58 -29.53224 -54.98166 7779 ft 193 kts 17°
2026-04-25 14:58 -29.51994 -54.97623 7584 ft 191 kts 17°
2026-04-25 14:58 -29.50761 -54.97079 7387 ft 189 kts 17°
2026-04-25 14:58 -29.49538 -54.96541 7197 ft 188 kts 18°
2026-04-25 14:59 -29.48322 -54.96006 7006 ft 187 kts 18°
2026-04-25 14:59 -29.47112 -54.95471 6816 ft 187 kts 18°
2026-04-25 14:59 -29.45908 -54.94942 6630 ft 186 kts 18°
2026-04-25 14:59 -29.44700 -54.94411 6444 ft 186 kts 18°
2026-04-25 15:00 -29.43491 -54.93877 6239 ft 185 kts 18°
2026-04-25 15:00 -29.42287 -54.93347 6039 ft 185 kts 18°
2026-04-25 15:00 -29.41083 -54.92820 5837 ft 185 kts 19°
2026-04-25 15:00 -29.39890 -54.92297 5633 ft 182 kts 19°
2026-04-25 15:01 -29.38713 -54.91780 5434 ft 180 kts 20°
2026-04-25 15:01 -29.37545 -54.91267 5234 ft 180 kts 20°
2026-04-25 15:01 -29.36392 -54.90761 5035 ft 179 kts 21°
2026-04-25 15:01 -29.35226 -54.90247 4838 ft 179 kts 21°
2026-04-25 15:02 -29.34074 -54.89740 4635 ft 175 kts 21°
2026-04-25 15:02 -29.32945 -54.89244 4429 ft 173 kts 21°
2026-04-25 15:02 -29.31827 -54.88755 4227 ft 171 kts 22°
2026-04-25 15:02 -29.30718 -54.88269 4024 ft 170 kts 22°
2026-04-25 15:03 -29.29616 -54.87785 3820 ft 169 kts 22°
2026-04-25 15:03 -29.28516 -54.87300 3616 ft 168 kts 23°
2026-04-25 15:03 -29.27423 -54.86824 3424 ft 168 kts 22°
2026-04-25 15:03 -29.26368 -54.86362 3223 ft 157 kts 22°
2026-04-25 15:04 -29.25375 -54.85927 3011 ft 153 kts 22°
2026-04-25 15:04 -29.24394 -54.85500 2798 ft 147 kts 22°
2026-04-25 15:04 -29.23457 -54.85090 2580 ft 143 kts 23°
2026-04-25 15:04 -29.22636 -54.84558 2475 ft 127 kts 40°
2026-04-25 15:05 -29.22021 -54.83899 2403 ft 118 kts 49°
2026-04-25 15:05 -29.21311 -54.83466 2426 ft 117 kts
2026-04-25 15:05 -29.20484 -54.83507 2406 ft 122 kts 356°
2026-04-25 15:06 -29.18817 -54.83782 2220 ft 111 kts 324°
2026-04-25 15:06 -29.18519 -54.84506 2039 ft 96 kts 256°
2026-04-25 15:06 -29.18854 -54.85041 1861 ft 86 kts 193°
2026-04-25 15:06 -29.19458 -54.84949 1689 ft 96 kts 154°
2026-04-25 15:07 -29.20090 -54.84685 1620 ft 96 kts 165°
2026-04-25 15:07 -29.20708 -54.84461 1529 ft 89 kts 166°
2026-04-25 15:07 -29.21305 -54.84245 1479 ft 91 kts 161°
2026-04-25 15:07 -29.21815 -54.84054 1456 ft 63 kts 162°
2026-04-25 15:08 -29.22006 -54.83988 1454 ft 0 kts 103°
2026-04-25 15:08 -29.21961 -54.84002 1454 ft 18 kts 335°
2026-04-25 15:08 -29.21811 -54.84061 1457 ft 27 kts 341°
2026-04-25 15:08 -29.21606 -54.84140 1460 ft 35 kts 341°
2026-04-25 15:09 -29.21484 -54.84181 1462 ft 0 kts 339°
2026-04-25 15:09 -29.21371 -54.84313 1451 ft 13 kts 246°
2026-04-25 15:10 -29.21420 -54.84312 1453 ft 0 kts 69°